| time (UTC) | temp F | wind direction | speed MPH | gust MPH | rain 1hr in | rain 24hr in | rain mn in | humidity % | barometer mb |
| 20260507084547 | 52 | 0 | 0.0 | 0.0 | 0.00 | 0.31 | 0.18 | 92 | 1016.6 |
| 20260507083044 | 52 | 0 | 0.0 | 0.0 | 0.00 | 0.31 | 0.18 | 92 | 1016.4 |
| 20260507081541 | 52 | 0 | 0.0 | 0.0 | 0.00 | 0.31 | 0.18 | 92 | 1016.0 |
| 20260507080046 | 52 | 0 | 0.0 | 0.0 | 0.00 | 0.31 | 0.18 | 92 | 1016.0 |
| 20260507074543 | 52 | 0 | 0.0 | 0.0 | 0.01 | 0.31 | 0.18 | 92 | 1016.0 |
| 20260507073045 | 52 | 0 | 0.0 | 0.0 | 0.01 | 0.31 | 0.18 | 92 | 1016.1 |
| 20260507071545 | 52 | 0 | 0.0 | 0.0 | 0.02 | 0.31 | 0.18 | 91 | 1016.1 |
| 20260507070059 | 53 | 0 | 0.0 | 0.0 | 0.02 | 0.31 | 0.18 | 91 | 1016.3 |
| 20260507064549 | 55 | 0 | 0.0 | 0.0 | 0.01 | 0.30 | 0.17 | 92 | 1016.3 |
| 20260507063038 | 55 | 0 | 0.0 | 0.0 | 0.01 | 0.30 | 0.17 | 91 | 1016.1 |
| 20260507061537 | 55 | 0 | 0.0 | 0.0 | 0.00 | 0.29 | 0.16 | 92 | 1016.1 |
| 20260507060042 | 55 | 0 | 0.0 | 0.0 | 0.00 | 0.29 | 0.16 | 91 | 1016.1 |
| 20260507054602 | 55 | 0 | 0.0 | 0.0 | 0.05 | 0.29 | 0.16 | 91 | 1016.5 |
| 20260507053048 | 55 | 0 | 0.0 | 0.0 | 0.12 | 0.29 | 0.16 | 91 | 1016.4 |
| 20260507051547 | 56 | 0 | 0.0 | 0.0 | 0.15 | 0.29 | 0.16 | 91 | 1016.2 |
| 20260507050047 | 56 | 0 | 0.0 | 0.0 | 0.16 | 0.29 | 0.16 | 91 | 1016.2 |
| 20260507044540 | 57 | 0 | 0.0 | 0.0 | 0.11 | 0.24 | 0.11 | 90 | 1016.7 |
| 20260507043042 | 57 | 0 | 0.0 | 0.0 | 0.03 | 0.16 | 0.03 | 90 | 1016.4 |
| 20260507041555 | 58 | 0 | 0.0 | 0.0 | 0.01 | 0.14 | 0.01 | 89 | 1016.0 |
| 20260507040044 | 58 | 0 | 0.0 | 0.0 | 0.00 | 0.13 | 0.00 | 88 | 1016.0 |
| 20260507034539 | 59 | 0 | 0.0 | 0.0 | 0.00 | 0.13 | 0.13 | 88 | 1015.5 |
| 20260507033044 | 59 | 0 | 0.0 | 0.0 | 0.00 | 0.13 | 0.13 | 89 | 1015.5 |
| 20260507031542 | 59 | 0 | 0.0 | 0.0 | 0.00 | 0.13 | 0.13 | 89 | 1015.7 |
| 20260507030040 | 60 | 0 | 0.0 | 0.0 | 0.00 | 0.13 | 0.13 | 89 | 1015.4 |
| 20260507024551 | 60 | 0 | 0.0 | 0.0 | 0.00 | 0.13 | 0.13 | 89 | 1015.2 |
| 20260507023035 | 60 | 0 | 0.0 | 0.0 | 0.00 | 0.13 | 0.13 | 89 | 1015.1 |
| 20260507021540 | 61 | 0 | 0.0 | 0.0 | 0.00 | 0.13 | 0.13 | 89 | 1015.1 |
| 20260507020055 | 61 | 0 | 0.0 | 0.0 | 0.00 | 0.13 | 0.13 | 89 | 1015.2 |
| 20260507014547 | 63 | 0 | 0.0 | 0.0 | 0.00 | 0.13 | 0.13 | 89 | 1014.7 |
| 20260507013044 | 64 | 0 | 0.0 | 0.0 | 0.00 | 0.13 | 0.13 | 89 | 1015.3 |
| 20260507011554 | 64 | 0 | 0.0 | 0.0 | 0.00 | 0.13 | 0.13 | 88 | 1015.2 |
| 20260507010050 | 65 | 0 | 0.0 | 0.0 | 0.00 | 0.13 | 0.13 | 88 | 1015.0 |
| 20260507004550 | 66 | 0 | 0.0 | 0.0 | 0.00 | 0.13 | 0.13 | 87 | 1015.0 |
| 20260507003050 | 66 | 0 | 0.0 | 0.0 | 0.00 | 0.13 | 0.13 | 86 | 1014.5 |
| 20260507001559 | 67 | 0 | 0.0 | 0.0 | 0.00 | 0.13 | 0.13 | 85 | 1014.1 |
| 20260507000057 | 67 | 0 | 0.0 | 0.0 | 0.00 | 0.13 | 0.13 | 84 | 1014.1 |
| 20260506234601 | 67 | 0 | 0.0 | 0.0 | 0.00 | 0.13 | 0.13 | 83 | 1013.7 |
| 20260506233048 | 68 | 0 | 0.0 | 0.0 | 0.00 | 0.13 | 0.13 | 82 | 1013.7 |
| 20260506231537 | 68 | 0 | 0.0 | 0.0 | 0.00 | 0.13 | 0.13 | 82 | 1013.5 |
| 20260506230038 | 68 | 0 | 0.0 | 0.0 | 0.00 | 0.13 | 0.13 | 81 | 1013.7 |
| 20260506224542 | 68 | 0 | 0.0 | 0.0 | 0.00 | 0.13 | 0.13 | 81 | 1013.6 |
| 20260506223041 | 68 | 0 | 0.0 | 0.0 | 0.00 | 0.13 | 0.13 | 80 | 1013.4 |
| 20260506221550 | 69 | 0 | 0.0 | 0.0 | 0.00 | 0.13 | 0.13 | 80 | 1013.6 |
| 20260506220045 | 69 | 0 | 0.0 | 0.0 | 0.00 | 0.13 | 0.13 | 79 | 1013.5 |
| 20260506214632 | 69 | 0 | 0.0 | 0.0 | 0.00 | 0.13 | 0.13 | 78 | 1013.6 |
| 20260506213050 | 69 | 0 | 0.0 | 0.0 | 0.00 | 0.13 | 0.13 | 78 | 1013.4 |
| 20260506211552 | 69 | 0 | 0.0 | 3.0 | 0.00 | 0.13 | 0.13 | 78 | 1013.3 |
| 20260506210046 | 69 | 0 | 0.0 | 1.0 | 0.00 | 0.13 | 0.13 | 77 | 1013.1 |
| 20260506204537 | 69 | 0 | 0.0 | 1.0 | 0.00 | 0.13 | 0.13 | 77 | 1013.1 |
| 20260506203035 | 69 | 0 | 0.0 | 0.0 | 0.00 | 0.13 | 0.13 | 77 | 1013.0 |
| 20260506201542 | 69 | 0 | 0.0 | 4.0 | 0.00 | 0.13 | 0.13 | 76 | 1013.1 |
| 20260506200042 | 70 | 0 | 0.0 | 1.0 | 0.00 | 0.13 | 0.13 | 78 | 1013.0 |
| 20260506194543 | 70 | 0 | 0.0 | 5.0 | 0.00 | 0.13 | 0.13 | 77 | 1013.1 |
| 20260506193047 | 68 | 0 | 0.0 | 5.0 | 0.00 | 0.13 | 0.13 | 78 | 1013.0 |
| 20260506191545 | 68 | 0 | 0.0 | 4.0 | 0.00 | 0.13 | 0.13 | 80 | 1013.4 |
| 20260506190043 | 68 | 0 | 0.0 | 1.0 | 0.00 | 0.13 | 0.13 | 81 | 1013.4 |
| 20260506184540 | 67 | 0 | 0.0 | 7.0 | 0.00 | 0.13 | 0.13 | 82 | 1013.6 |
| 20260506183040 | 66 | 0 | 0.0 | 8.0 | 0.00 | 0.13 | 0.13 | 83 | 1013.7 |
| 20260506181553 | 65 | 204 | 0.0 | 4.0 | 0.00 | 0.13 | 0.13 | 84 | 1013.7 |
| 20260506180037 | 65 | 0 | 0.0 | 5.0 | 0.00 | 0.13 | 0.13 | 84 | 1014.0 |
| 20260506174542 | 65 | 0 | 0.0 | 4.0 | 0.00 | 0.13 | 0.13 | 86 | 1013.9 |
| 20260506173110 | 64 | 0 | 0.0 | 10.0 | 0.00 | 0.13 | 0.13 | 87 | 1013.9 |
| 20260506171543 | 64 | 0 | 0.0 | 5.0 | 0.00 | 0.13 | 0.13 | 88 | 1014.0 |
| 20260506170104 | 63 | 0 | 0.0 | 10.0 | 0.00 | 0.13 | 0.13 | 88 | 1014.0 |
| 20260506164543 | 62 | 0 | 0.0 | 4.0 | 0.00 | 0.13 | 0.13 | 89 | 1014.2 |
| 20260506163051 | 62 | 0 | 0.0 | 8.0 | 0.00 | 0.13 | 0.13 | 90 | 1014.3 |
| 20260506161541 | 61 | 0 | 0.0 | 7.0 | 0.01 | 0.13 | 0.13 | 90 | 1014.4 |
| 20260506160045 | 61 | 0 | 0.0 | 6.0 | 0.01 | 0.13 | 0.13 | 90 | 1014.4 |
| 20260506154600 | 61 | 251 | 0.0 | 3.0 | 0.03 | 0.13 | 0.13 | 90 | 1014.1 |
| 20260506153036 | 61 | 0 | 0.0 | 6.0 | 0.03 | 0.13 | 0.13 | 90 | 1014.3 |
| 20260506151542 | 60 | 0 | 0.0 | 3.0 | 0.04 | 0.12 | 0.12 | 90 | 1014.6 |
| 20260506150040 | 60 | 0 | 0.0 | 2.0 | 0.05 | 0.12 | 0.12 | 90 | 1014.9 |
| 20260506144549 | 60 | 0 | 0.0 | 7.0 | 0.05 | 0.10 | 0.10 | 90 | 1015.1 |
| 20260506143037 | 60 | 0 | 0.0 | 3.0 | 0.06 | 0.10 | 0.10 | 90 | 1015.1 |
| 20260506141542 | 61 | 0 | 0.0 | 5.0 | 0.05 | 0.08 | 0.08 | 90 | 1014.8 |
| 20260506140043 | 61 | 57 | 0.0 | 4.0 | 0.06 | 0.07 | 0.07 | 90 | 1014.9 |
| 20260506134545 | 61 | 0 | 0.0 | 1.0 | 0.04 | 0.05 | 0.05 | 90 | 1015.1 |
| 20260506133052 | 61 | 0 | 0.0 | 0.0 | 0.04 | 0.04 | 0.04 | 89 | 1015.7 |
| 20260506131536 | 61 | 0 | 0.0 | 0.0 | 0.03 | 0.03 | 0.03 | 88 | 1015.3 |
| 20260506130039 | 62 | 0 | 0.0 | 0.0 | 0.01 | 0.01 | 0.01 | 86 | 1015.2 |
| 20260506124542 | 63 | 0 | 0.0 | 0.0 | 0.01 | 0.01 | 0.01 | 84 | 1014.9 |
| 20260506123042 | 63 | 0 | 0.0 | 0.0 | 0.00 | 0.00 | 0.00 | 81 | 1015.0 |
| 20260506121537 | 64 | 0 | 0.0 | 0.0 | 0.00 | 0.00 | 0.00 | 79 | 1015.4 |
| 20260506120050 | 64 | 0 | 0.0 | 7.0 | 0.00 | 0.00 | 0.00 | 77 | 1015.5 |
| 20260506114548 | 64 | 0 | 0.0 | 4.0 | 0.00 | 0.00 | 0.00 | 76 | 1015.4 |
| 20260506113051 | 65 | 0 | 0.0 | 6.0 | 0.00 | 0.00 | 0.00 | 75 | 1015.0 |
| 20260506111538 | 65 | 0 | 0.0 | 4.0 | 0.00 | 0.00 | 0.00 | 74 | 1014.9 |
| 20260506110043 | 65 | 0 | 0.0 | 4.0 | 0.00 | 0.00 | 0.00 | 74 | 1014.7 |
| 20260506104607 | 65 | 0 | 0.0 | 3.0 | 0.00 | 0.00 | 0.00 | 74 | 1014.5 |
| 20260506103043 | 65 | 0 | 0.0 | 7.0 | 0.00 | 0.00 | 0.00 | 73 | 1014.3 |
| 20260506101547 | 65 | 0 | 0.0 | 5.0 | 0.00 | 0.00 | 0.00 | 73 | 1014.3 |
| 20260506100044 | 65 | 0 | 0.0 | 5.0 | 0.00 | 0.00 | 0.00 | 72 | 1014.3 |
| 20260506094545 | 65 | 0 | 0.0 | 4.0 | 0.00 | 0.00 | 0.00 | 71 | 1014.3 |
| 20260506093043 | 65 | 0 | 0.0 | 2.0 | 0.00 | 0.00 | 0.00 | 71 | 1014.3 |
| 20260506091542 | 66 | 0 | 0.0 | 2.0 | 0.00 | 0.00 | 0.00 | 70 | 1014.4 |
| 20260506090046 | 66 | 0 | 0.0 | 6.0 | 0.00 | 0.00 | 0.00 | 69 | 1014.3 |